Temp
18 18 18 18 18 18 19 19 19 19 20 20 20 20 21 21 21 22 22 22 22 22 23 23 23 23 23 24 24 23 23 22 22 20 21 24 25 24 24 24 24 24 23 23 22 22 21 21 21 20 22 21 19 19 20 19 19 21 21 21 21 20 20 21 22 22 22 24 24 24 22 21 23 23 21 20 21 22 21 21 21 20 19 19 16 14 15 14
18 18 18 18 18 18 18 19 19 19 19 20 20 20 20 21 21 21 22 22 22 23 23 23 23 23 23 24 23 24 24 22 21 20 23 25 25 24 24 23 24 24 23 23 23 22 22 21 19 20 21 21 19 19 20 19 19 21 20 20 21 21 21 21 23 23 22 23 24 23 21 20 22 23 21 22 24 23 22 22 21 22 22 20 15 13 14 13
17 17 17 17 18 18 18 18 19 19 19 20 20 20 20 21 21 21 22 22 22 23 23 23 23 23 23 23 23 24 23 22 22 23 25 25 25 25 24 23 23 23 23 23 23 22 23 22 20 21 21 21 19 19 20 20 20 20 19 21 22 22 21 20 21 22 22 22 22 23 20 19 21 21 21 22 23 22 22 23 23 23 24 24 18 11 11 12
17 17 17 17 17 17 18 18 18 19 19 19 20 20 20 21 21 21 22 22 22 22 23 23 23 23 23 23 23 23 23 23 25 25 25 25 25 25 24 24 23 23 23 22 23 22 22 21 20 21 21 21 19 18 20 20 20 20 19 22 22 20 20 21 21 21 21 19 20 22 20 20 21 19 21 22 22 22 22 23 23 24 24 24 22 13 9 10
16 16 16 16 17 17 17 17 18 18 18 19 19 19 20 20 21 21 22 22 23 22 23 23 23 23 22 22 22 23 24 24 26 25 25 25 25 25 24 24 23 23 22 22 22 22 22 20 20 21 21 21 20 19 21 20 19 20 19 22 21 18 20 23 22 21 20 19 19 20 21 21 20 19 21 22 22 23 24 23 23 24 24 24 22 14 9 9
15 15 15 16 16 16 16 17 17 17 18 18 18 19 19 20 20 21 21 22 22 22 23 23 23 23 22 22 22 23 24 24 25 25 25 25 25 25 24 24 23 23 22 22 22 21 22 20 21 22 21 21 20 21 21 19 18 21 21 20 21 19 20 22 22 21 20 20 20 21 20 19 20 21 21 21 22 23 24 24 24 23 21 20 18 14 13 12
14 15 15 15 15 15 16 16 16 17 17 17 18 18 18 19 19 20 21 21 22 22 22 22 22 22 22 22 21 22 22 24 26 26 25 25 25 24 24 23 22 22 22 21 21 21 21 21 21 21 20 21 20 21 21 19 18 20 20 20 21 20 19 20 20 20 19 20 20 19 19 19 20 20 19 20 22 23 23 22 23 21 17 17 18 17 17 15
14 14 14 14 14 15 15 16 16 16 17 17 17 17 18 18 18 19 19 20 21 21 21 21 21 21 22 21 21 21 21 23 26 25 25 25 25 24 24 23 22 22 21 21 21 20 20 21 21 20 21 22 20 20 20 19 19 19 20 20 20 20 20 20 19 18 19 19 18 18 19 21 20 19 19 20 21 22 22 21 21 20 18 18 19 19 18 15
13 14 14 14 14 14 15 15 15 16 16 17 17 17 17 18 18 18 18 19 20 20 20 21 21 21 21 20 20 21 21 24 26 25 25 25 25 24 23 23 22 22 21 21 21 20 21 21 21 21 22 21 20 20 20 20 21 20 20 20 20 20 20 20 19 19 19 19 18 18 21 21 20 20 20 21 22 22 21 21 20 20 20 19 18 19 18 17
13 13 13 14 14 14 14 14 15 15 16 16 17 17 17 17 17 18 18 18 19 19 19 20 20 20 20 19 20 21 23 25 25 25 25 25 25 23 23 23 22 22 20 19 19 19 21 21 20 20 21 21 19 19 19 20 20 19 20 19 20 19 19 19 19 20 19 19 19 19 21 21 20 20 21 23 23 22 21 22 21 20 21 20 18 18 16 16
12 13 13 14 14 14 14 14 15 15 15 16 17 17 17 17 17 17 18 18 19 19 19 19 19 19 19 19 20 21 23 25 25 25 25 24 24 23 23 23 22 22 20 18 18 20 21 21 18 19 21 20 20 19 19 19 19 19 19 20 20 19 19 18 19 19 19 19 19 19 20 20 19 19 21 23 23 22 22 23 21 21 21 20 19 17 16 15
12 13 13 14 14 14 14 14 14 15 15 16 17 17 17 17 17 17 18 18 19 19 18 19 19 19 18 18 19 21 23 24 24 24 24 23 23 22 22 22 22 22 21 19 19 20 21 20 20 21 22 20 20 20 19 18 18 19 18 20 21 20 20 20 20 19 19 20 19 18 19 20 21 21 22 22 22 21 21 22 22 21 20 19 18 17 16 15
13 13 13 13 14 14 14 14 14 15 15 16 17 17 17 17 17 18 18 19 19 19 18 19 19 18 18 19 21 22 23 23 23 23 23 22 21 21 21 21 21 20 21 20 20 21 20 20 21 21 20 20 21 20 19 18 18 19 18 19 20 20 20 21 21 19 18 19 19 20 20 21 23 24 24 22 21 21 21 22 22 21 21 20 19 17 17 15
13 13 13 13 13 14 14 14 14 14 15 16 16 17 17 17 18 19 19 19 19 18 18 18 18 17 18 20 22 22 22 22 22 22 21 21 20 19 19 19 20 19 20 20 20 21 20 20 20 19 18 19 20 19 18 18 19 19 19 19 18 19 21 22 20 18 19 19 18 21 20 20 24 24 24 23 21 22 22 22 22 22 21 20 19 18 18 17
13 13 13 13 14 14 14 14 14 14 15 16 16 17 17 17 18 19 19 19 19 18 17 17 17 17 17 20 22 21 21 21 21 21 21 20 19 18 18 19 19 19 19 19 20 20 20 20 20 20 19 19 19 19 19 19 19 19 19 19 18 18 20 21 20 19 20 19 17 20 20 19 21 23 24 22 20 21 22 22 22 22 21 20 20 19 19 18
13 13 13 13 14 14 14 14 14 15 15 16 16 17 17 17 18 18 18 18 18 17 17 16 16 17 18 20 21 21 20 20 20 21 20 19 19 19 18 18 18 18 18 19 19 19 19 20 19 18 19 19 19 19 18 18 19 18 18 19 19 18 19 19 22 21 20 19 18 19 20 20 21 23 23 21 19 20 20 21 21 21 21 20 20 19 19 19
13 14 14 14 14 14 14 14 14 15 15 16 17 17 17 17 17 17 17 17 17 16 16 16 15 16 19 21 21 21 20 20 20 20 19 19 18 19 18 17 16 17 18 18 18 18 18 19 17 17 18 18 18 18 18 18 19 18 17 18 18 18 18 19 22 22 18 19 20 19 19 20 21 22 22 22 21 20 19 20 20 20 20 20 20 19 19 19
14 14 14 14 14 14 14 14 14 15 15 16 17 17 17 16 17 16 16 16 15 15 16 16 16 17 20 21 20 21 20 19 19 18 18 18 17 18 19 17 15 16 18 18 18 18 18 17 17 18 19 18 17 18 18 18 19 20 19 18 18 17 18 18 20 21 20 19 19 18 18 18 19 20 20 20 20 20 20 20 19 20 19 20 19 19 19 19
14 14 14 14 14 14 14 14 14 14 15 16 17 17 16 16 16 16 15 16 16 18 19 17 17 19 21 20 20 20 19 18 19 18 17 17 17 18 18 17 16 17 19 18 18 18 17 17 17 18 19 19 19 17 18 20 20 20 19 19 19 18 18 18 19 20 19 18 18 18 18 19 19 19 19 20 19 19 20 20 20 20 19 19 19 19 19 19
14 14 14 14 14 14 14 14 14 14 14 15 17 17 17 16 16 17 16 15 17 18 18 17 17 19 20 20 19 19 18 18 18 17 16 17 17 18 17 16 17 18 18 19 18 17 17 17 17 18 19 19 20 18 18 20 19 19 18 18 18 18 18 19 19 19 18 17 18 19 19 19 19 19 20 20 20 19 19 20 20 20 20 19 19 19 19 19
13 13 14 14 14 14 14 14 14 14 14 15 16 16 15 15 16 16 14 14 15 14 15 16 16 17 19 19 18 18 19 19 17 16 16 17 17 18 18 17 18 18 17 17 17 16 16 16 17 18 19 20 20 19 18 18 18 18 18 18 17 17 17 18 19 19 18 17 18 19 19 18 19 19 19 19 19 19 20 20 20 20 21 20 20 20 20 20
13 13 13 13 13 13 13 14 14 14 14 15 15 14 13 13 13 13 12 14 14 12 13 14 13 14 16 17 17 17 18 19 18 16 16 16 17 19 19 17 18 17 16 16 17 16 15 15 16 18 18 18 19 18 17 17 17 17 17 16 16 16 17 18 18 18 17 17 17 18 17 17 18 19 19 19 19 20 20 20 20 21 21 21 21 20 20 20
13 13 13 13 13 13 13 14 14 14 14 14 14 12 12 12 11 11 11 12 13 13 14 14 14 14 15 16 16 16 17 17 18 17 16 17 17 17 18 17 17 16 16 17 18 17 16 16 17 17 17 17 18 17 17 17 16 16 16 16 16 17 18 18 18 18 16 16 17 17 16 17 18 18 18 19 19 20 20 20 20 20 20 20 21 21 20 20
13 13 13 13 13 13 13 13 14 14 13 13 13 12 12 12 11 11 11 12 13 14 14 14 14 15 16 16 16 17 17 16 18 18 16 17 17 16 17 17 16 16 16 16 18 18 18 18 17 17 16 16 17 17 17 17 17 16 16 16 17 17 17 18 17 17 16 17 16 16 17 19 20 20 19 19 18 18 19 19 19 19 19 19 19 19 19 19
13 13 13 13 13 13 13 13 14 13 13 13 12 12 12 12 11 11 11 13 14 14 14 14 14 15 16 16 16 17 17 17 18 17 15 17 18 17 17 16 16 17 16 16 16 16 17 18 17 17 16 16 16 16 16 17 17 17 16 16 17 18 17 17 17 16 16 18 16 15 19 21 20 20 21 21 19 19 19 18 19 19 19 19 18 19 19 19
13 13 13 13 13 13 13 13 13 13 13 13 12 12 12 12 11 11 12 14 15 16 16 16 15 17 17 16 16 16 18 18 15 14 15 16 17 18 17 16 16 17 16 16 15 15 16 17 17 17 17 16 15 15 16 16 17 17 17 17 17 16 16 16 16 16 16 18 15 14 18 19 19 20 21 22 21 22 22 19 20 20 19 19 19 19 19 19
13 13 13 13 13 13 13 13 13 13 14 13 13 13 13 12 11 12 14 15 17 18 18 16 16 17 17 15 15 17 19 17 15 14 15 15 16 17 18 17 17 16 16 16 16 16 17 16 16 16 16 16 15 16 16 15 16 17 16 17 18 17 16 16 15 15 15 16 14 15 17 17 18 19 20 21 21 22 22 20 20 19 19 20 20 20 19 19
13 13 13 13 12 12 12 13 12 12 13 13 13 13 13 13 11 13 16 16 18 20 19 17 16 17 16 14 15 17 17 16 17 16 14 15 16 17 17 17 17 17 16 17 17 17 17 17 17 16 15 15 16 17 16 15 17 17 14 14 16 16 15 15 15 15 14 14 15 15 16 17 18 19 19 18 19 21 21 21 20 19 20 20 21 20 20 19
12 13 13 12 12 12 12 12 12 12 13 13 12 13 13 12 12 14 15 16 18 20 19 18 17 17 17 16 15 17 16 16 18 16 14 15 16 16 17 16 17 17 16 17 17 17 17 17 16 16 16 16 17 17 16 17 17 15 13 14 14 14 14 14 15 15 14 15 15 15 16 18 19 20 19 18 19 22 22 21 20 20 20 20 21 21 20 18
12 12 12 12 12 12 12 12 12 12 12 12 12 13 12 12 14 15 15 15 18 19 18 18 18 16 17 17 17 16 17 17 16 15 15 15 15 16 16 15 15 17 16 16 16 16 16 14 13 16 17 17 16 14 13 15 15 14 14 16 15 15 14 13 14 15 15 16 16 16 16 18 19 20 20 19 19 20 21 21 21 22 22 22 20 19 17 16
11 12 12 12 12 12 12 12 13 13 12 12 12 12 13 14 15 15 15 16 17 18 18 18 17 16 17 18 18 17 17 17 16 15 17 16 15 16 16 15 16 16 16 16 16 15 15 14 14 16 16 15 16 14 11 11 12 14 16 17 17 16 15 14 14 15 16 16 17 16 16 17 18 19 20 20 19 18 19 22 23 24 26 24 19 16 16 15
11 11 11 11 11 12 12 12 13 13 12 12 12 12 13 14 14 14 16 17 18 18 19 18 16 16 17 17 18 17 16 17 16 16 17 16 15 16 16 17 18 17 18 18 17 16 16 15 15 15 14 15 17 17 13 12 12 14 15 16 16 16 16 15 15 14 15 16 16 15 15 16 17 19 20 20 20 20 19 19 22 23 24 23 19 17 17 17
10 11 11 11 11 11 11 12 12 12 12 12 12 13 14 14 14 15 16 17 19 18 18 17 16 16 16 17 18 17 16 17 17 16 16 15 14 16 16 16 17 18 18 17 17 18 18 16 14 15 16 15 17 17 16 15 14 13 15 16 16 16 16 16 16 14 15 16 15 13 15 16 17 20 21 21 21 21 20 19 19 20 19 19 18 19 19 20
10 10 10 11 11 11 11 11 12 12 12 12 12 13 13 13 14 15 16 17 18 17 17 17 16 16 16 17 18 17 17 18 17 15 16 15 15 16 17 15 14 16 17 16 16 17 17 17 16 17 17 15 16 17 18 17 14 13 15 16 16 17 17 17 18 17 17 18 15 13 15 17 18 20 20 20 20 19 19 18 17 16 16 16 18 19 21 22
9 10 10 10 11 11 11 11 11 11 12 12 12 13 13 14 14 15 16 16 17 18 17 16 16 17 16 16 16 16 17 18 16 15 16 16 16 17 18 17 15 15 16 16 16 16 16 17 17 15 15 14 15 16 16 17 16 14 14 16 16 17 18 18 18 18 18 17 15 14 15 16 18 19 19 18 18 18 19 17 16 17 18 18 19 21 22 21
8 9 9 10 10 11 11 11 10 11 11 12 12 13 13 14 15 15 16 16 17 18 17 16 17 17 16 17 16 16 16 16 15 16 16 15 16 16 16 17 16 15 16 16 17 17 17 17 16 14 14 14 14 15 15 16 17 14 13 16 16 15 17 17 17 17 16 15 17 18 17 17 18 19 19 18 19 19 19 18 18 19 20 19 21 22 21 20
8 8 8 9 10 11 11 11 10 10 11 11 12 13 14 14 15 16 16 16 16 17 17 16 17 17 17 17 17 16 16 16 15 16 16 15 16 16 16 17 16 15 17 17 18 18 17 17 17 16 16 14 11 12 14 14 15 15 15 16 15 14 16 16 15 16 15 15 17 18 18 18 19 19 19 19 21 21 20 20 19 19 19 20 22 21 18 17
7 7 8 9 10 11 11 11 10 10 10 11 12 13 14 14 15 15 16 16 16 16 16 15 16 17 17 16 16 16 16 16 15 15 16 16 17 17 17 17 16 14 16 16 16 17 16 16 17 16 16 14 11 12 15 13 13 14 15 15 15 15 16 16 14 15 15 14 15 17 18 17 18 19 19 20 21 21 21 20 19 20 21 21 21 19 16 16
6 7 9 10 10 10 10 10 10 10 10 11 12 13 13 14 14 15 15 16 16 15 15 15 15 16 16 16 16 16 16 16 15 15 16 16 17 17 17 17 16 14 14 15 15 15 15 15 16 15 14 14 14 14 15 15 13 13 13 14 14 14 15 15 15 14 15 15 15 16 17 17 18 19 19 20 21 22 21 20 20 20 21 21 19 17 16 17
6 8 10 10 9 9 9 9 9 10 11 12 12 13 13 14 14 14 15 15 15 15 14 15 15 15 15 15 15 15 15 15 15 15 15 16 16 17 17 17 17 15 13 14 14 14 14 14 14 14 13 13 14 15 15 16 16 14 14 14 14 14 14 14 13 14 15 14 15 15 15 17 19 20 19 19 20 20 20 19 19 20 19 17 16 15 16 17
6 8 10 10 9 9 9 10 10 10 11 12 12 12 13 13 13 14 13 13 14 15 14 14 14 14 14 14 14 14 14 14 15 14 15 15 16 16 16 16 17 16 13 13 14 13 14 14 13 14 14 13 15 16 16 16 17 16 15 15 14 14 14 12 13 14 14 14 14 14 14 16 19 20 19 19 18 19 19 19 19 19 18 16 15 15 15 14
6 8 9 9 9 9 9 10 11 11 11 11 12 12 12 13 13 13 13 13 13 13 13 13 14 13 13 13 13 14 14 14 14 14 14 14 15 15 16 15 15 16 15 14 15 14 13 14 13 13 14 14 15 15 14 15 15 15 14 14 15 14 14 13 13 14 14 14 15 14 13 15 19 19 18 18 18 18 18 18 19 19 18 16 15 13 11 10
6 8 9 9 9 9 10 10 10 10 10 11 12 12 12 12 12 12 12 12 12 12 12 13 13 13 13 13 13 13 13 13 13 14 13 14 14 13 13 13 13 14 15 14 13 13 12 12 12 13 14 14 15 14 13 12 13 13 13 14 13 14 14 14 13 13 13 13 14 13 13 14 17 18 17 17 18 17 17 18 18 16 15 13 11 9 7 6
5 6 7 8 9 9 9 10 11 10 10 11 11 11 12 12 11 11 12 12 12 12 12 12 13 13 13 13 13 13 13 12 12 13 13 13 13 10 9 10 11 12 12 11 11 11 11 11 12 12 12 13 13 14 13 12 12 12 12 13 13 13 13 13 12 12 12 12 13 13 12 14 16 16 17 17 17 18 18 14 11 9 8 7 6 5 5 5
4 5 6 7 8 8 8 9 10 10 10 10 10 10 11 11 12 12 11 11 12 12 11 11 12 12 11 12 11 11 11 11 11 11 11 12 12 9 7 9 10 9 9 8 9 9 9 11 12 11 11 12 12 13 13 13 12 11 12 13 12 12 12 12 12 12 11 13 14 12 12 15 16 16 17 17 16 16 14 8 5 5 5 5 5 4 4 4
4 6 6 6 7 7 7 8 8 9 10 10 10 11 10 10 11 12 11 11 11 11 11 10 10 10 10 10 10 10 11 10 10 11 11 11 11 9 7 8 8 8 8 8 8 8 9 10 11 11 11 12 12 13 13 12 12 11 12 12 12 12 12 11 11 11 11 12 12 13 13 13 14 15 15 12 10 9 8 4 3 4 4 4 4 3 3 3
4 5 6 7 7 6 7 7 7 8 8 9 9 10 10 10 11 11 11 11 10 10 10 10 9 10 10 10 10 10 10 10 10 10 9 9 9 8 7 7 7 7 7 8 8 8 8 8 10 10 10 11 11 11 11 11 10 11 11 11 12 12 12 11 10 11 12 11 11 13 13 11 13 13 10 6 5 5 5 4 3 3 3 3 3 3 3 3
4 4 5 6 6 6 6 6 5 6 7 7 8 8 9 9 9 10 10 10 10 10 10 9 9 9 9 9 9 9 10 10 10 9 8 7 7 7 8 8 7 6 7 7 7 8 7 7 9 9 9 10 10 9 10 10 10 10 10 10 11 11 11 11 10 11 11 10 10 12 12 11 12 9 5 3 3 3 4 4 3 3 3 3 3 2 2 2
3 3 4 4 4 4 5 5 4 5 5 6 6 7 8 8 8 9 9 9 9 9 10 9 8 7 6 7 8 8 9 9 8 8 7 6 6 7 7 8 7 6 6 6 7 7 7 7 9 9 8 8 8 8 9 9 9 9 10 10 10 10 10 10 10 11 10 10 11 11 11 11 9 4 3 3 3 3 3 4 3 3 3 2 2 2 2 2
3 3 3 3 2 3 3 4 4 4 5 6 6 7 7 8 8 8 8 8 8 9 9 8 6 5 5 5 6 7 7 7 6 6 5 5 6 6 6 6 6 6 5 6 6 7 7 7 8 8 6 7 8 8 9 9 9 9 9 10 10 10 10 10 10 10 10 10 11 10 11 10 5 1 2 3 3 3 3 3 3 3 2 2 2 2 2 2
3 3 3 2 2 3 3 3 3 3 4 5 6 6 7 7 6 6 7 7 7 7 6 5 4 4 4 4 5 5 5 5 4 5 5 4 5 6 5 6 6 5 5 6 6 6 7 6 7 7 5 6 8 8 8 8 8 8 8 9 9 9 9 10 10 11 10 9 9 10 10 7 3 2 2 3 2 3 3 3 3 2 2 2 2 2 2 2
2 3 3 2 1 2 2 2 2 3 4 4 5 5 5 5 4 4 6 6 5 4 4 4 4 4 3 4 4 4 4 4 4 5 5 4 5 5 5 5 5 5 5 5 5 6 6 5 6 6 5 6 7 8 7 7 6 6 8 9 9 10 9 10 10 8 6 6 7 7 6 3 2 2 2 2 2 2 2 3 2 2 2 2 2 2 2 2
Height
829 829 828 828 827 826 826 825 824 824 823 822 821 821 820 819 819 818 818 817 816 815 815 814 813 812 811 810 810 809 808 807 806 806 805 802 801 801 801 802 803 803 804 805 805 806 807 808 808 809 809 811 815 815 815 816 817 819 825 833 833 835 832 822 819 818 813 808 803 802 804 806 802 798 797 797 797 796 796 795 793 791 788 787 786 786 787 787
829 829 828 828 827 826 826 825 824 824 823 822 821 820 820 819 818 818 817 816 816 815 814 813 813 812 810 810 809 808 807 805 804 804 802 800 800 800 800 801 802 803 804 805 805 805 807 808 808 809 811 814 817 816 816 817 817 821 830 834 829 826 820 814 811 809 810 806 802 802 804 806 801 798 798 797 796 796 796 793 792 790 785 784 785 786 786 787
829 828 828 827 826 826 825 825 824 823 823 822 821 820 819 818 818 817 816 816 815 814 814 813 812 811 810 810 808 808 806 804 804 802 800 800 800 799 799 800 801 802 803 804 805 806 806 807 808 810 813 815 818 818 818 818 818 821 828 831 822 816 814 812 811 807 806 804 804 803 804 805 800 798 798 797 796 795 795 790 789 788 783 780 783 785 785 786
829 828 828 827 826 825 824 824 823 823 822 821 820 820 819 818 817 816 815 815 814 814 813 812 812 810 810 809 809 808 805 805 803 799 799 799 799 799 799 799 801 801 803 804 805 806 806 807 808 810 814 817 820 821 819 817 819 822 824 821 815 816 814 808 807 805 806 808 807 804 805 803 798 799 797 795 798 794 789 785 784 783 778 777 780 783 784 784
829 828 827 827 826 825 824 823 822 822 821 820 820 819 818 818 817 816 815 815 814 813 812 812 811 810 810 808 809 807 807 813 805 797 799 799 798 798 798 799 800 801 802 803 804 805 806 807 808 812 815 817 820 820 818 816 818 821 819 813 811 817 813 802 803 805 806 808 807 805 804 799 796 798 794 795 799 788 779 778 778 776 774 774 777 780 782 783
828 827 827 826 826 825 824 823 822 822 821 820 819 818 818 817 816 815 815 814 813 813 812 811 810 810 809 808 809 806 812 817 803 796 799 798 798 798 798 798 799 800 802 803 804 805 806 808 810 813 816 817 819 817 815 817 818 818 814 811 810 813 810 802 802 803 805 806 804 803 801 799 797 794 789 792 791 778 771 772 773 771 772 772 774 777 779 780
828 827 827 826 825 824 823 823 822 821 820 819 819 817 817 816 815 814 813 813 812 812 811 810 809 809 808 808 808 807 812 810 797 797 798 797 798 797 797 798 799 800 801 802 803 805 807 809 810 813 816 816 817 815 814 816 818 818 815 811 808 810 808 802 802 804 805 804 801 802 802 798 796 793 788 786 782 772 768 769 771 770 770 772 772 773 773 774
828 827 827 826 825 824 823 822 821 821 820 819 818 817 816 815 815 813 813 812 811 811 810 809 809 808 808 808 808 809 810 803 795 796 796 796 797 796 797 797 798 799 800 801 802 804 806 808 810 813 814 813 814 814 814 815 817 818 813 809 807 808 805 801 803 805 804 802 801 803 801 791 789 793 786 780 778 771 766 766 769 768 768 770 769 769 770 770
827 827 826 826 825 823 823 822 821 820 819 818 817 816 815 814 814 812 812 811 810 810 809 808 808 807 808 807 809 811 804 795 794 794 794 795 795 795 796 796 797 798 799 800 801 802 804 807 807 808 809 810 812 812 813 814 814 811 808 807 806 805 802 800 801 801 802 799 799 801 797 786 786 789 779 771 770 765 764 765 765 767 766 766 766 765 766 766
827 826 826 825 824 823 822 821 820 819 818 817 816 815 815 813 813 811 810 810 809 808 808 808 807 807 808 806 811 810 796 791 793 793 793 793 793 793 794 794 796 796 797 799 800 801 802 803 804 805 807 809 811 812 813 812 810 807 807 807 804 804 802 801 799 798 801 798 795 797 793 784 786 791 776 761 762 762 763 763 762 765 763 761 763 762 763 763
827 826 825 824 824 823 821 821 819 818 817 816 816 814 813 812 811 810 809 808 807 807 807 806 806 807 806 807 810 803 791 791 793 791 792 792 791 792 792 793 793 794 796 797 799 799 799 800 801 804 806 808 809 812 812 807 806 806 807 806 802 803 801 799 798 797 798 793 789 792 792 787 788 791 773 756 758 762 762 760 759 762 760 759 760 759 760 759
826 826 825 824 823 822 821 821 819 818 817 816 815 813 812 811 810 808 807 806 806 806 806 805 806 805 806 807 803 794 789 791 791 790 791 790 790 791 791 792 792 793 794 796 797 797 799 800 800 803 805 807 808 810 808 805 807 806 807 807 801 802 798 789 790 792 793 788 784 790 795 791 784 776 761 753 757 761 762 759 757 757 756 756 756 756 757 754
826 826 825 824 823 822 821 820 819 818 816 815 813 812 811 809 808 806 805 804 804 804 804 804 804 804 807 804 793 788 789 789 789 789 789 789 789 790 790 791 792 793 793 794 796 796 798 798 799 802 803 805 807 807 804 805 808 805 808 810 804 806 797 782 784 790 790 787 783 787 794 787 774 762 751 752 757 760 761 758 755 753 752 753 753 753 752 750
826 826 825 824 823 822 821 820 819 817 816 814 812 811 809 807 805 803 802 802 801 802 802 803 803 804 806 799 787 787 788 787 787 787 787 787 788 789 790 791 791 792 793 794 795 795 797 798 800 802 803 805 804 803 806 809 807 806 810 810 811 814 797 779 784 791 789 786 782 785 792 784 769 759 748 749 756 757 757 756 754 751 749 750 749 749 748 745
826 825 824 824 823 822 821 820 818 817 815 813 811 809 807 805 803 801 800 799 799 801 801 802 802 803 806 798 786 786 786 785 785 785 786 786 787 788 789 790 791 792 793 794 795 795 796 797 799 802 804 803 803 806 811 811 807 810 812 809 813 814 800 785 782 784 783 783 785 786 786 781 771 759 748 749 755 755 755 753 752 749 747 747 745 745 744 740
825 825 824 823 823 822 821 819 818 816 814 812 810 808 805 803 801 799 799 797 798 800 800 802 801 803 806 797 786 785 784 783 783 783 784 785 786 787 788 790 791 792 793 794 795 795 796 798 801 804 804 803 806 810 814 816 812 813 815 810 808 809 806 796 779 773 777 780 783 783 778 774 766 756 750 752 754 754 755 753 750 748 745 744 742 741 740 737
825 824 824 823 822 821 820 819 817 815 813 811 808 805 803 802 800 799 798 797 798 799 800 801 801 804 801 791 786 784 781 782 782 782 783 783 785 786 788 790 791 792 793 794 795 796 797 799 804 805 805 807 810 812 818 824 818 812 815 813 810 808 806 801 782 769 776 779 778 780 778 769 760 755 753 752 752 754 754 752 749 746 743 741 738 738 737 734
825 824 823 823 822 821 820 818 817 814 812 810 807 804 803 802 801 800 799 799 800 800 802 802 802 807 798 787 786 783 780 781 781 782 782 783 785 786 787 789 792 792 794 797 797 798 800 803 807 807 807 810 811 813 817 816 808 803 805 806 808 808 805 805 791 772 773 778 778 782 779 768 762 760 758 753 753 753 749 745 744 741 739 737 735 735 732 728
824 823 823 822 821 821 819 818 816 814 812 809 807 803 801 802 801 801 801 801 802 801 801 801 800 802 795 785 783 781 780 782 781 781 782 783 785 787 788 789 791 793 796 800 799 799 802 805 810 810 809 805 801 804 804 795 792 795 797 799 801 801 800 797 788 775 776 781 782 780 771 764 763 760 757 752 751 752 745 738 736 735 734 733 731 729 726 723
823 823 823 822 821 820 819 818 816 815 812 809 806 802 803 806 804 802 802 801 801 799 798 799 796 793 789 784 782 781 781 781 780 781 782 783 784 786 789 790 793 795 797 799 799 801 803 805 808 806 800 793 788 793 794 788 792 797 800 801 800 801 796 788 782 776 780 783 778 772 763 759 759 756 754 750 746 749 745 737 731 729 728 727 726 723 720 717
823 823 822 821 821 820 819 818 816 815 813 811 807 806 810 815 812 810 808 802 796 795 795 793 792 789 785 781 780 780 781 780 780 781 782 782 783 786 788 791 795 798 799 799 801 803 804 805 804 795 786 784 786 791 794 795 798 800 801 802 803 804 795 784 781 775 780 784 776 770 763 756 756 753 751 750 746 742 737 734 730 725 722 719 719 718 713 709
823 822 821 821 820 820 819 818 817 815 814 813 810 811 815 817 816 816 815 808 796 791 792 788 787 787 781 777 778 780 783 783 780 780 782 782 784 786 787 791 795 797 800 802 801 803 806 805 799 789 785 787 789 792 796 800 802 802 805 807 805 803 793 783 780 777 782 784 774 772 764 751 752 750 745 743 739 731 725 726 728 724 719 713 711 711 707 704
822 821 821 821 820 820 819 818 817 816 815 813 813 815 816 816 816 816 817 813 800 789 786 783 782 782 777 774 775 779 784 784 781 779 780 782 785 787 787 792 796 798 800 799 796 799 802 798 790 786 789 793 792 795 798 799 802 803 805 807 802 799 794 785 781 780 784 783 776 775 764 744 742 743 738 733 728 724 722 722 724 722 716 709 702 702 704 704
820 821 821 820 820 819 818 818 817 816 816 815 815 816 816 815 815 815 815 811 801 788 780 777 777 777 774 773 773 777 780 781 779 777 777 779 784 788 787 790 796 799 799 795 792 791 788 784 784 787 792 795 795 797 799 800 800 798 800 803 796 792 792 788 785 784 783 780 777 778 759 729 726 732 728 726 727 726 725 723 720 717 711 704 699 700 704 705
819 819 819 819 819 819 819 818 816 817 816 816 817 816 816 816 814 815 815 810 800 787 777 774 776 774 771 772 773 775 777 778 777 776 776 777 780 785 787 789 792 795 795 794 795 792 785 782 785 788 792 795 798 798 799 800 796 791 794 796 788 785 789 789 789 792 790 782 781 785 765 727 718 729 725 720 726 725 723 723 716 708 701 698 701 703 702 700
817 817 817 818 818 818 819 817 817 817 816 816 816 815 816 815 814 815 815 813 799 781 774 774 774 771 769 772 773 773 776 778 777 776 777 777 778 780 785 788 788 790 791 793 796 793 786 783 782 785 789 794 800 801 797 797 796 792 789 786 784 788 791 790 792 796 792 784 785 789 779 750 725 723 723 718 721 718 714 717 709 698 695 697 703 703 698 698
815 815 816 816 816 817 817 816 817 816 816 817 815 816 816 813 816 814 812 816 799 773 771 775 773 771 770 773 773 773 778 778 777 778 777 779 778 778 783 787 787 788 788 792 793 786 781 782 784 785 789 795 800 796 788 792 797 791 786 782 781 786 789 792 795 797 793 787 788 785 784 778 746 721 722 719 719 720 714 711 704 698 699 700 702 700 697 697
813 814 814 814 815 815 815 815 816 815 816 816 815 816 815 813 816 812 817 823 795 766 769 774 771 770 769 773 774 774 779 778 777 779 778 779 779 779 783 785 786 786 786 789 788 781 777 779 781 785 791 795 791 783 781 789 791 785 788 789 786 788 790 793 793 795 800 795 789 783 782 786 756 721 724 728 724 722 713 705 701 699 702 700 698 697 695 695
812 812 812 813 813 813 814 814 815 815 815 815 815 816 814 815 814 813 827 826 786 763 771 771 769 772 772 774 776 776 778 776 777 779 778 779 778 779 784 784 785 785 785 786 783 779 778 777 779 781 786 785 778 777 780 781 782 784 790 790 790 794 793 797 795 793 801 794 784 784 781 779 750 712 719 732 725 716 706 703 703 700 701 700 696 695 694 697
811 811 811 811 812 812 813 813 813 813 814 814 815 815 815 815 815 823 831 815 784 773 774 770 772 777 775 775 777 777 777 776 778 779 778 780 779 779 783 784 784 784 785 787 784 779 780 783 785 779 775 774 774 783 786 781 781 786 787 783 786 792 791 798 797 792 798 787 772 774 773 774 754 718 715 723 717 713 707 704 702 697 695 696 696 698 700 702
810 810 810 810 811 811 812 812 811 812 813 813 814 815 816 816 820 828 819 795 785 780 773 774 780 779 777 777 777 776 776 775 777 779 778 780 782 781 783 783 783 786 786 785 783 780 781 784 783 774 771 774 774 782 790 790 788 785 783 782 783 787 789 795 797 795 796 780 764 765 768 772 755 721 714 716 714 717 713 705 699 693 691 693 699 703 704 704
809 808 808 809 809 810 811 811 810 811 812 812 815 815 817 823 823 818 802 788 787 781 773 779 783 779 781 781 777 777 779 776 776 778 778 782 784 781 782 780 779 783 784 780 778 776 774 775 775 772 772 773 771 777 787 791 789 786 785 787 789 792 792 792 795 798 794 775 765 770 773 768 744 716 714 715 709 708 709 707 702 696 694 696 701 703 700 700
807 807 807 808 808 809 810 810 810 812 811 812 815 815 821 829 817 801 795 790 785 778 775 779 781 782 783 780 776 778 780 775 774 778 778 783 786 780 780 780 777 779 781 781 780 775 769 768 773 773 769 768 767 772 776 777 782 786 782 783 790 793 793 791 791 795 787 769 768 777 775 762 737 715 710 707 700 700 703 706 705 702 704 703 703 701 697 696
806 806 806 806 807 807 808 810 810 811 812 813 815 818 824 822 804 793 794 789 781 778 777 779 782 783 783 780 777 777 777 773 773 778 779 782 785 778 775 780 781 779 780 784 784 780 777 770 768 766 764 765 764 762 762 764 774 781 773 774 778 775 776 776 772 770 764 756 768 781 771 750 730 712 704 701 701 702 702 705 707 708 708 706 703 699 696 695
804 804 804 804 805 805 806 808 809 810 812 813 816 821 818 808 796 794 792 786 782 779 778 780 781 781 781 780 778 776 774 774 776 779 779 779 779 773 769 773 778 779 781 785 781 780 782 770 761 764 765 767 765 760 761 763 769 777 774 773 772 763 760 762 758 754 756 760 767 770 757 737 720 706 702 705 703 702 703 705 707 705 702 702 700 695 694 695
802 802 802 801 801 803 804 806 808 810 811 813 817 815 804 794 791 790 785 781 781 779 779 782 780 781 781 777 776 777 774 775 778 778 777 779 776 773 771 768 770 773 774 777 773 771 775 765 759 766 765 764 766 762 763 764 764 774 778 770 765 763 759 761 762 757 763 768 755 745 741 731 717 705 700 704 701 698 700 701 702 700 698 699 696 692 694 696
801 800 799 798 798 800 802 804 807 808 810 813 812 802 790 786 784 782 781 780 781 778 782 785 780 777 779 776 775 777 776 776 778 776 776 778 773 769 770 765 766 768 763 765 767 765 768 763 756 759 759 762 771 769 763 765 765 769 772 763 760 765 761 764 771 766 768 770 751 737 734 729 726 714 701 700 697 694 696 698 698 698 697 696 692 692 698 700
799 798 797 794 794 796 799 802 804 807 810 810 804 793 786 783 779 778 779 780 781 780 783 787 781 773 776 777 774 774 775 776 778 778 776 775 767 762 763 761 763 766 762 763 768 766 768 767 756 756 760 762 769 769 763 765 767 765 764 762 763 767 762 763 771 770 769 768 754 742 736 732 731 717 702 699 696 691 694 697 697 695 693 692 691 695 700 700
798 798 794 790 790 792 796 800 801 806 808 804 798 790 783 780 778 777 778 778 780 782 784 785 781 777 776 776 775 774 774 775 777 778 775 772 766 759 759 759 761 766 766 766 770 769 771 774 764 760 764 763 762 764 762 762 765 766 767 765 765 767 764 763 765 764 762 760 752 745 739 731 721 706 700 701 694 691 695 698 698 695 692 693 696 699 699 697
798 798 793 789 789 790 794 799 801 803 801 795 791 786 781 780 779 777 778 779 779 781 783 782 781 781 777 775 775 775 775 775 775 776 773 769 765 758 757 758 759 766 770 768 771 774 775 776 771 764 765 767 762 758 756 755 757 763 766 766 766 766 766 766 765 760 758 757 752 747 740 726 709 698 697 698 697 697 698 698 697 694 695 700 702 701 699 697
799 798 793 789 789 790 794 798 798 797 795 790 787 784 781 781 779 778 779 780 779 778 780 780 780 780 779 777 777 776 776 776 774 775 773 768 767 764 759 757 757 763 770 770 771 775 774 772 772 768 765 762 754 748 749 748 748 753 756 757 760 761 765 771 766 756 755 755 748 745 739 722 705 698 695 696 699 700 699 699 697 694 697 701 702 702 702 703
799 796 792 790 791 791 793 795 793 792 792 788 784 783 782 781 779 779 780 780 781 780 779 780 779 778 779 778 777 777 777 776 773 773 772 767 766 764 760 759 760 761 764 766 765 766 768 769 770 767 759 752 745 744 748 748 747 751 752 751 753 753 758 764 759 750 748 745 740 741 738 721 705 700 699 697 696 698 700 700 697 695 698 701 703 706 710 712
799 795 791 790 791 791 792 793 791 790 788 784 781 781 781 781 781 780 780 780 781 782 781 779 777 777 777 774 775 776 776 775 772 769 769 767 765 767 766 766 767 764 763 766 766 766 771 773 770 763 754 746 743 743 749 753 752 753 752 751 752 751 748 749 750 749 747 744 740 741 735 721 708 704 703 701 698 699 701 702 702 705 708 712 716 720 722 723
801 798 794 791 790 791 792 790 787 787 787 785 785 784 781 782 781 780 780 780 780 781 781 778 775 774 773 772 774 775 775 776 772 767 768 767 767 775 777 773 771 771 773 777 775 774 777 774 771 769 763 755 750 746 749 755 757 757 754 750 752 752 750 751 752 754 753 747 743 741 731 719 712 709 706 704 702 699 701 713 724 729 730 730 730 730 729 728
802 799 795 792 790 791 790 786 785 787 786 785 786 785 784 782 778 776 779 779 778 779 779 778 776 776 775 775 778 779 777 779 778 774 773 770 769 777 782 778 776 778 782 785 782 781 782 774 769 770 768 762 757 751 748 750 755 758 755 751 751 752 754 755 753 753 750 738 734 735 727 716 713 711 707 707 709 708 714 732 743 743 743 742 739 737 735 732
803 799 796 794 791 791 790 788 789 788 785 785 784 781 782 781 775 774 776 776 775 776 778 779 779 781 781 779 780 780 777 778 780 777 775 773 772 778 784 782 780 782 784 784 783 783 784 778 770 767 765 760 755 750 748 751 755 757 754 751 750 751 752 755 755 752 745 736 731 728 723 722 718 714 716 726 735 735 737 746 749 747 748 747 744 743 741 738
804 801 798 795 793 792 791 790 792 790 787 787 784 779 778 778 776 775 774 774 775 775 777 778 778 779 780 778 779 779 775 776 777 777 779 780 779 782 784 782 783 785 783 784 784 783 786 783 774 769 767 763 759 758 756 758 759 758 756 755 753 751 751 754 755 748 742 741 734 724 726 730 724 724 740 754 757 755 753 753 754 753 752 749 747 745 743 740
803 801 798 797 798 796 793 794 796 795 792 791 789 784 780 779 779 778 777 776 776 776 777 778 778 780 781 780 781 780 777 777 777 780 785 788 788 786 782 780 784 786 784 786 786 785 790 788 775 771 771 767 767 767 763 762 761 759 759 758 755 753 752 751 748 741 742 744 735 729 732 731 727 740 761 767 763 761 760 758 757 756 753 751 749 747 745 743
803 803 800 800 802 801 798 798 799 798 796 794 792 788 784 783 782 780 780 780 779 778 777 777 782 788 790 787 785 782 780 780 781 784 789 792 792 789 785 782 783 785 787 789 787 786 790 785 773 773 777 774 773 771 766 765 764 760 759 757 755 753 750 748 745 741 743 739 732 732 733 729 740 761 769 765 764 764 761 758 757 755 754 753 751 749 748 746
804 804 803 803 805 804 802 801 800 800 798 795 793 788 784 784 784 782 782 783 782 780 779 783 790 795 796 794 791 788 785 787 789 790 793 796 792 790 792 789 786 789 791 791 789 787 787 782 773 775 782 778 769 766 765 765 763 760 758 755 753 751 747 745 744 739 736 731 728 730 726 730 755 772 768 764 765 762 759 758 757 755 754 753 751 750 750 748
804 803 803 806 807 803 803 804 803 802 799 795 792 789 785 786 788 789 787 785 785 785 788 794 798 799 799 798 796 794 791 792 795 793 794 797 793 791 794 792 789 792 792 790 790 788 787 786 779 781 787 779 766 764 764 761 762 762 759 753 749 746 743 739 732 729 731 731 730 727 728 741 762 769 766 766 765 761 760 759 756 755 754 752 751 750 749 749
804 803 802 807 809 803 803 806 805 803 799 795 793 792 791 793 795 795 791 788 790 793 795 798 798 799 800 799 796 797 795 794 795 794 793 794 792 791 792 791 790 793 792 790 790 788 788 789 786 786 787 777 767 765 764 766 771 765 752 745 740 737 735 731 729 737 746 746 742 741 747 760 767 766 765 765 763 762 760 757 756 756 754 752 751 751 750 748
Wind_Speed
7 7 8 8 8 8 9 9 9 9 9 9 9 10 10 10 10 10 11 11 11 12 12 12 13 13 14 14 13 12 12 12 10 7 6 6 6 7 9 7 4 9 12 9 8 9 7 4 4 5 4 3 3 1 1 2 2 3 3 3 2 3 4 6 8 7 4 4 6 4 2 2 7 5 2 1 1 3 3 4 5 6 7 7 5 4 1 9
8 8 8 9 9 9 10 9 10 10 9 9 9 9 10 10 10 11 11 11 12 12 12 12 13 14 14 15 14 13 14 14 9 6 5 1 3 5 8 8 6 8 12 9 10 11 7 3 5 5 4 2 2 2 1 1 2 3 3 2 4 6 6 6 8 6 4 4 6 7 3 3 7 4 1 2 6 5 5 7 4 7 11 9 6 4 6 14
9 9 10 10 10 10 10 10 10 10 10 10 10 10 10 10 11 11 11 11 12 12 12 12 13 14 14 14 13 13 14 11 6 3 2 4 5 4 4 8 7 8 11 8 8 9 4 5 9 7 4 1 1 2 2 1 1 2 3 2 6 7 6 5 7 8 7 4 5 9 4 2 6 4 1 3 7 6 7 9 6 8 12 11 6 7 11 17
11 11 11 11 11 11 11 11 11 11 11 11 11 11 11 11 11 11 12 11 12 12 12 12 13 13 14 14 11 12 12 7 3 4 4 3 7 5 2 8 9 9 12 7 4 6 3 7 9 5 4 0 3 3 0 2 2 1 4 5 7 4 4 7 8 9 8 3 4 6 4 5 6 2 2 3 5 9 9 10 11 13 13 12 7 8 13 15
12 12 12 12 12 12 12 11 11 11 11 11 11 11 11 12 11 12 12 12 12 12 13 12 12 13 13 12 10 10 9 6 2 5 1 7 8 5 1 7 10 10 12 8 5 7 6 8 7 5 3 1 2 2 2 4 3 2 4 6 6 5 4 7 7 8 5 3 4 4 6 7 3 1 5 6 5 10 9 8 12 14 13 11 7 8 10 11
11 11 11 11 12 12 12 12 12 12 12 12 12 12 12 12 12 12 12 12 12 12 12 12 12 12 12 11 8 5 4 1 5 4 6 10 8 5 1 6 10 11 12 9 7 9 7 6 4 3 2 0 3 4 5 3 3 3 5 5 6 6 6 6 3 4 4 3 5 4 5 4 4 8 6 10 11 16 13 8 10 11 11 9 5 8 9 11
10 10 10 10 11 11 12 12 12 12 13 12 12 12 12 12 13 13 13 13 13 12 13 12 12 11 11 9 6 3 4 5 13 11 12 11 8 5 3 7 10 12 13 10 9 8 5 5 3 4 4 1 4 5 5 1 2 3 5 5 6 6 8 8 4 3 3 7 8 3 6 8 10 9 2 8 13 18 17 10 8 10 9 7 5 8 11 13
10 10 10 10 10 11 11 11 12 12 13 13 13 13 13 14 14 14 14 14 13 13 13 12 12 11 11 6 2 3 1 10 18 16 13 11 8 5 5 7 11 13 14 13 11 9 6 6 6 4 2 4 4 4 4 1 1 5 7 5 3 4 7 9 6 6 7 9 7 2 7 16 14 6 6 10 13 17 18 11 9 11 9 8 9 10 11 12
10 11 10 10 11 11 12 12 12 12 13 12 13 14 14 15 15 15 15 15 15 14 13 13 12 10 9 3 3 3 5 11 14 11 9 9 8 6 7 8 11 14 13 12 12 11 7 6 7 5 4 4 5 4 4 3 4 7 8 5 4 5 7 8 7 7 7 6 4 3 11 18 9 4 10 14 16 18 15 11 9 9 10 9 10 11 11 11
11 11 11 11 11 12 12 13 13 14 14 14 14 15 15 15 16 16 16 16 16 15 14 13 12 9 6 1 2 5 8 8 7 8 9 10 10 9 9 9 12 16 13 10 12 13 8 8 7 5 4 3 4 4 3 5 4 5 5 5 7 8 7 6 6 7 5 5 7 8 14 17 5 1 8 10 10 9 7 10 8 6 10 10 10 10 10 11
11 11 11 11 11 12 13 14 15 16 16 16 16 16 16 16 17 17 17 17 17 16 14 13 12 8 5 2 3 7 6 5 8 10 11 12 12 11 11 11 12 16 14 9 12 16 10 9 8 5 2 2 3 3 4 5 2 2 2 5 9 7 8 7 7 7 4 5 9 12 11 13 4 2 13 16 7 2 6 12 9 7 10 10 9 10 8 10
11 11 11 12 12 13 14 15 16 17 18 18 19 18 17 17 18 19 19 18 18 16 14 13 11 6 2 1 7 14 14 11 11 12 12 13 12 11 10 11 13 15 15 9 10 16 13 8 9 6 4 3 1 1 4 4 1 1 3 4 10 7 10 11 7 5 7 4 6 10 4 8 6 9 18 19 6 2 6 11 11 10 10 9 9 8 7 10
11 11 12 12 13 14 15 16 17 19 19 20 20 19 18 20 21 21 20 19 18 16 13 11 10 5 2 2 7 14 19 19 18 16 16 15 13 10 10 11 12 12 14 11 7 10 13 11 10 6 3 4 2 2 1 2 1 3 2 0 7 7 9 8 2 2 4 5 7 7 3 6 10 16 19 13 5 3 6 10 11 11 9 8 8 7 8 10
10 11 12 13 14 15 16 17 19 20 21 22 21 20 21 22 22 21 20 19 18 14 11 7 5 4 4 6 10 9 14 18 19 20 19 17 12 7 7 9 10 11 11 10 7 5 9 12 8 3 1 3 3 2 2 5 3 3 2 1 2 2 7 5 2 2 2 4 7 6 5 8 9 17 20 10 3 6 8 10 11 11 9 8 8 7 9 10
11 11 12 13 14 15 16 18 19 21 23 23 21 22 24 23 21 19 18 17 14 9 6 4 5 6 3 8 12 9 11 13 16 19 19 18 13 7 6 8 9 10 9 8 7 5 8 9 6 3 2 1 1 2 3 4 3 2 2 4 2 3 6 10 6 6 7 4 4 6 5 8 9 16 19 8 1 6 8 10 10 11 11 9 9 8 9 11
11 11 12 13 14 15 16 18 20 22 24 23 23 25 23 19 17 15 14 10 7 5 3 4 8 7 1 5 8 9 10 10 11 13 14 16 15 8 8 10 7 8 8 6 7 7 8 7 3 2 1 1 1 2 2 4 4 2 2 5 5 5 4 7 10 8 9 3 1 7 7 6 7 11 14 9 3 5 6 9 11 12 12 10 10 8 9 10
10 11 12 13 14 15 17 19 21 23 25 24 26 25 17 12 12 11 8 3 3 6 6 3 7 5 2 5 7 9 7 7 9 8 9 12 13 11 11 8 5 8 8 5 6 6 4 3 0 1 2 1 2 4 1 3 5 4 2 5 5 6 5 3 9 8 4 6 6 7 8 11 11 8 11 11 9 7 8 11 13 13 13 12 11 9 10 11
9 10 11 12 14 15 17 19 21 24 25 25 26 21 10 7 8 8 8 9 10 8 5 3 5 2 5 6 7 6 2 2 5 4 6 8 10 12 10 6 5 9 8 4 2 3 1 2 2 1 1 1 2 5 4 7 8 7 6 5 4 4 6 6 8 7 2 4 5 4 9 15 15 11 12 14 11 12 16 16 14 14 14 14 13 11 12 13
10 11 11 13 14 15 17 19 21 24 24 25 25 14 5 6 5 7 8 7 6 2 1 1 3 2 4 6 7 6 4 1 1 2 5 8 11 11 8 6 7 7 5 1 1 2 1 3 4 2 2 6 9 10 12 14 12 10 7 5 5 5 6 8 11 9 4 6 6 9 16 15 15 14 13 15 12 10 18 19 15 13 13 13 12 12 13 15
10 11 12 13 14 15 17 18 21 23 23 25 23 10 3 6 4 2 5 3 3 4 3 4 6 4 6 6 4 4 3 2 2 3 8 11 13 11 5 4 6 5 3 4 3 2 3 3 4 6 10 15 16 12 14 15 7 4 3 5 7 8 9 9 12 10 0 3 8 11 19 17 15 15 12 14 13 10 15 20 19 15 13 12 13 15 15 16
12 12 12 13 14 16 16 17 20 21 19 20 19 8 2 2 2 4 5 5 9 11 9 11 11 10 13 13 8 2 1 2 2 3 8 11 13 10 1 2 5 1 3 4 2 1 2 6 8 12 17 14 9 7 10 10 6 5 5 7 7 7 11 10 11 12 1 1 7 8 17 20 14 14 12 12 14 16 18 18 19 19 17 14 13 16 17 16
13 12 13 14 14 16 16 17 20 18 17 17 14 8 3 0 2 4 2 4 10 10 11 13 11 10 17 24 18 4 2 4 5 2 9 9 6 5 2 4 6 4 3 4 1 1 3 6 11 16 14 5 2 4 5 6 6 8 5 6 7 4 9 9 8 10 3 1 7 8 16 18 13 14 14 15 17 18 19 16 14 16 18 18 14 14 16 15
13 12 13 13 14 16 16 17 18 15 15 14 10 6 1 3 3 3 1 3 8 7 8 9 8 7 12 19 15 6 4 7 7 5 10 10 2 3 4 5 5 3 4 6 7 6 5 6 13 16 8 5 5 3 6 2 4 6 5 6 8 3 5 8 5 6 4 3 7 10 16 15 11 13 15 18 19 16 16 14 13 15 17 21 20 15 12 13
13 13 13 12 14 15 15 18 14 11 13 10 7 6 5 5 2 1 0 3 5 6 7 6 4 5 7 7 4 8 6 5 4 5 11 13 4 2 4 5 5 3 5 11 12 11 10 7 7 8 6 8 9 3 3 3 6 7 8 7 10 9 10 10 5 7 7 5 5 7 14 13 7 9 10 10 10 11 12 14 15 15 17 20 20 15 10 11
14 13 13 12 12 12 14 16 9 8 12 6 5 9 8 5 2 1 1 2 4 6 6 3 2 3 5 2 4 7 3 2 4 3 10 13 6 3 2 3 4 5 9 10 11 11 10 5 2 2 5 7 7 6 6 6 8 8 6 10 16 15 11 10 8 7 6 5 4 5 8 10 2 6 7 5 2 6 8 11 16 17 18 17 12 11 11 11
16 15 13 12 10 10 11 8 4 7 10 2 3 9 9 5 3 1 1 3 4 5 2 1 2 1 2 2 3 5 3 2 4 1 4 6 4 4 2 1 1 4 7 6 5 5 5 4 3 5 6 6 5 6 7 9 7 9 5 11 15 12 9 10 9 4 2 5 3 4 1 10 7 3 8 7 3 8 9 10 16 18 15 8 4 7 10 10
17 17 15 12 9 7 6 3 4 7 5 1 4 9 8 5 3 2 1 3 5 2 2 1 0 2 1 1 1 3 3 4 3 3 2 1 2 1 1 3 2 2 4 2 2 3 4 3 3 5 5 6 5 5 7 10 6 7 4 7 9 8 9 7 5 4 4 4 3 2 4 6 13 5 5 7 6 8 11 13 17 15 8 7 6 8 9 10
15 16 15 13 10 7 5 5 5 4 3 3 4 6 7 5 2 2 2 2 5 1 2 2 0 2 1 1 3 4 1 2 2 2 2 2 1 1 1 5 5 3 2 4 5 3 4 4 5 6 5 4 6 6 7 12 7 6 2 5 5 5 5 4 4 5 1 4 4 4 6 2 12 6 3 1 4 7 13 16 17 12 8 8 8 9 10 9
10 10 11 11 9 7 7 7 6 4 4 3 3 5 5 4 2 4 3 2 2 2 1 1 1 1 3 3 3 2 1 1 2 2 3 2 1 3 1 5 5 4 4 4 8 5 0 4 6 8 5 6 7 4 8 13 8 4 6 5 4 4 2 4 4 3 3 4 5 6 6 2 11 7 4 3 2 7 11 12 12 9 8 9 9 10 10 5
6 5 6 6 6 6 6 8 10 8 5 4 4 6 4 3 2 3 3 4 1 1 1 1 0 2 2 3 3 3 1 2 0 1 3 1 2 4 2 3 4 2 4 3 7 8 3 1 2 5 5 6 5 3 4 9 6 3 5 4 5 4 3 4 1 4 2 6 6 10 12 6 7 6 4 3 4 6 6 7 9 8 7 10 8 7 7 6
5 5 5 4 5 5 4 4 8 8 7 5 3 3 3 2 3 3 7 2 1 3 1 2 2 2 3 2 2 2 1 2 1 2 1 1 2 4 1 1 2 2 3 4 6 7 3 1 2 3 2 4 5 3 1 1 4 4 3 3 3 3 3 4 4 3 2 8 5 10 13 10 9 6 2 4 6 5 6 6 9 9 8 8 6 6 6 5
6 6 5 4 6 8 6 3 2 4 7 4 1 1 2 2 1 6 5 2 2 3 1 1 2 2 3 2 1 2 1 2 0 3 2 2 2 2 3 4 3 1 4 2 3 5 3 5 4 2 1 4 5 2 3 3 3 4 3 3 1 4 3 2 3 0 4 8 5 6 7 6 11 8 5 10 12 9 8 7 8 9 8 8 7 8 7 6
8 7 6 5 6 9 11 8 3 5 7 6 2 3 4 2 5 4 2 1 2 1 1 1 1 1 1 2 3 2 1 2 2 2 2 3 2 3 4 5 5 2 4 2 2 5 4 4 2 1 3 4 7 6 3 2 4 6 6 5 5 2 2 4 3 2 5 6 3 3 3 3 7 6 7 13 15 11 7 7 9 8 7 7 8 8 7 7
10 9 8 7 7 9 11 12 8 7 8 7 3 2 2 7 6 2 2 5 3 3 2 2 2 2 1 2 4 3 2 3 2 3 1 2 1 3 4 4 4 4 2 1 2 2 4 7 3 5 2 3 9 8 4 3 5 6 5 5 5 5 4 5 4 5 6 4 2 1 3 4 3 3 7 11 9 7 4 5 4 4 6 6 6 8 7 7
12 11 11 11 11 10 11 13 11 10 9 6 3 2 5 8 4 1 4 4 2 3 4 1 2 3 3 3 4 3 4 4 1 3 2 2 3 3 2 3 5 5 3 2 2 2 4 8 5 3 2 5 7 4 2 4 1 3 3 3 3 5 4 3 4 4 3 2 1 2 4 5 4 6 8 7 8 8 6 4 5 5 6 4 5 7 6 6
12 11 11 12 14 14 14 14 14 13 11 5 2 5 8 7 3 3 4 2 2 2 2 3 1 3 5 3 2 3 3 3 1 1 2 3 3 4 4 3 6 8 7 4 3 1 4 6 3 1 2 4 6 3 2 2 3 1 3 3 4 3 4 2 5 1 1 4 5 5 6 6 5 8 6 3 5 6 6 6 4 7 6 4 5 7 5 6
12 9 8 10 15 16 15 15 17 17 9 3 4 7 6 5 5 5 3 1 1 3 2 3 3 3 4 2 3 2 1 1 2 2 2 2 3 4 5 4 4 10 11 5 2 3 4 6 4 4 4 3 3 2 1 1 3 4 3 4 2 1 2 1 2 1 2 7 6 6 12 10 6 8 5 6 9 8 5 5 5 6 5 5 7 5 5 6
9 7 7 11 15 17 17 18 21 16 6 2 8 10 5 4 5 5 4 2 2 1 1 5 4 3 4 4 4 2 3 3 1 2 2 3 4 4 5 3 3 7 8 3 1 3 2 4 5 3 3 3 2 2 2 3 1 4 3 2 1 2 3 1 2 2 5 8 5 6 12 10 7 10 9 10 14 12 6 4 6 6 6 6 6 6 6 7
4 3 4 5 7 14 19 22 20 10 2 4 9 9 5 5 4 3 4 3 2 2 4 5 4 4 3 4 4 2 3 4 2 2 3 3 4 3 4 2 1 1 3 3 3 3 2 2 4 1 1 2 3 1 3 2 2 0 1 2 1 2 3 2 1 1 4 8 7 7 9 7 7 10 11 11 11 9 7 5 6 7 8 7 5 6 7 7
1 1 3 4 3 10 21 20 13 6 4 6 8 7 3 3 3 2 4 4 2 2 4 5 4 4 5 4 5 4 3 3 3 4 3 3 4 3 2 2 2 1 2 2 3 1 2 3 5 2 2 3 2 4 6 5 3 1 1 3 2 2 1 2 2 1 3 7 7 7 8 7 6 7 9 8 6 5 7 7 8 8 6 6 5 5 6 7
1 1 2 5 4 16 21 13 6 4 5 6 8 8 6 4 4 4 3 3 4 3 2 3 5 4 5 5 5 3 2 3 4 4 4 4 5 4 3 2 3 2 3 3 3 2 1 3 5 4 5 6 8 7 7 9 7 5 5 6 7 6 3 4 6 4 4 6 7 8 9 7 3 6 9 8 5 5 7 8 9 8 7 7 6 6 6 6
0 2 2 6 7 22 16 5 4 3 5 5 5 5 4 4 4 5 3 2 4 3 1 3 5 5 5 6 6 3 2 3 4 4 4 5 6 6 3 1 1 1 1 1 3 4 2 3 5 8 8 11 13 7 5 8 5 3 4 5 6 6 5 6 9 5 5 7 6 8 10 6 4 7 12 14 14 10 6 7 9 8 8 8 9 10 10 11
1 2 5 5 13 23 10 3 5 3 4 4 3 4 3 2 2 4 3 2 3 3 3 3 5 6 6 6 7 5 4 5 6 7 6 4 5 4 5 8 6 3 3 4 2 2 1 2 4 8 7 8 11 6 1 3 3 0 3 4 4 4 4 7 7 3 4 6 6 8 9 4 4 8 11 13 15 13 6 4 6 7 8 11 13 14 14 13
2 2 4 5 8 11 4 4 6 5 6 5 6 8 7 4 4 7 6 3 3 3 3 3 4 6 6 5 5 5 5 5 5 7 6 4 4 2 10 10 5 4 3 2 2 4 2 1 2 4 4 5 7 6 2 2 1 1 4 4 5 5 8 9 6 4 5 6 9 11 9 4 3 5 8 8 11 13 9 7 10 10 10 12 12 13 12 12
2 1 3 6 7 4 3 3 2 4 7 8 10 10 9 6 6 8 8 6 5 4 3 4 3 3 3 2 1 2 4 4 3 4 2 2 3 2 8 8 6 4 3 4 4 2 2 2 3 4 6 6 8 7 3 1 1 2 2 4 6 7 9 9 7 7 7 8 11 11 9 8 5 5 7 8 9 11 10 13 12 10 10 10 10 11 11 11
1 1 2 3 3 1 2 2 2 2 5 6 8 8 11 12 7 5 7 7 8 7 5 4 2 1 3 2 2 5 5 5 5 3 3 3 3 1 3 4 5 4 3 7 7 1 1 2 5 8 10 9 10 9 6 6 6 6 7 9 9 8 8 7 6 7 9 9 10 11 11 12 11 9 8 9 11 12 12 12 10 9 10 9 8 9 9 10
0 1 1 1 2 1 2 2 2 3 3 3 3 4 8 11 7 3 5 4 4 3 3 4 3 4 5 3 3 5 4 4 6 5 3 3 2 3 3 2 4 4 4 4 5 2 1 3 5 9 12 10 10 11 11 11 11 10 11 12 13 12 11 10 11 11 11 10 9 9 11 15 15 9 6 8 9 10 11 11 9 8 8 8 8 10 11 11
0 0 1 1 1 1 2 2 3 3 4 4 3 3 4 6 4 2 2 2 1 0 1 2 1 1 3 2 2 3 3 4 4 3 0 1 2 4 5 1 1 4 6 3 3 3 0 4 5 9 11 8 9 11 11 11 10 10 10 12 13 14 14 15 17 16 13 11 11 11 14 19 16 7 5 6 6 7 8 8 7 6 7 8 9 10 11 12
1 0 2 2 0 1 2 2 3 3 4 4 3 4 6 8 9 6 1 3 4 2 3 4 0 3 3 2 2 4 4 4 4 1 2 1 2 2 3 3 1 3 6 5 3 1 2 4 5 7 8 9 10 11 11 12 12 11 11 12 12 14 16 18 17 15 15 17 18 17 19 18 8 4 5 5 5 5 4 4 6 7 8 9 9 9 10 10
0 1 1 2 0 1 2 2 2 3 3 3 4 6 7 8 9 6 2 4 6 4 2 1 2 4 3 3 1 3 3 2 3 1 2 1 1 1 1 2 2 4 6 4 2 2 3 4 6 7 8 11 13 12 11 12 13 14 14 13 14 17 19 18 16 15 16 18 16 16 17 10 1 5 4 6 6 6 5 6 7 7 8 8 9 8 7 8
0 0 0 1 2 2 1 1 1 2 3 3 4 4 5 6 5 3 2 2 2 1 3 4 4 3 1 2 2 3 3 2 1 1 2 2 2 1 0 2 3 6 6 3 2 2 3 4 6 7 7 10 13 14 15 13 12 14 15 16 19 19 17 16 15 13 12 11 12 12 10 4 2 3 3 4 6 7 8 7 6 6 7 8 9 8 7 7
1 2 0 2 2 1 2 1 1 2 3 2 1 2 1 0 3 3 2 1 5 6 7 5 2 1 1 3 3 1 1 1 2 3 2 4 5 5 4 6 6 6 5 4 2 2 4 4 5 6 7 9 12 14 13 10 9 11 12 13 16 16 14 15 12 7 5 4 5 6 3 1 3 4 4 5 6 7 7 7 5 3 5 6 7 7 7 6
Wind_Direction
357 0 359 359 355 355 355 353 353 353 355 353 352 350 348 349 347 348 346 345 346 345 347 345 348 348 347 352 353 347 336 322 310 285 257 272 286 262 254 261 230 203 203 194 180 165 139 133 147 132 124 90 12 346 27 9 94 70 90 128 229 202 202 192 191 202 194 262 270 300 44 186 285 294 283 357 340 272 275 272 270 280 261 233 242 288 282 166
353 356 357 355 351 352 351 348 348 346 348 347 346 343 341 342 338 339 338 339 339 338 341 340 342 342 343 349 350 350 338 324 316 284 257 352 348 280 251 237 225 208 199 193 193 174 144 176 166 111 77 62 345 5 5 323 110 109 119 159 231 204 214 199 188 201 205 238 266 290 296 208 248 269 9 281 278 303 295 279 276 276 269 258 243 222 186 171
351 354 354 352 348 349 346 345 344 342 343 341 340 337 336 334 331 332 331 331 331 331 333 334 336 337 339 343 349 352 338 327 322 269 173 61 14 333 255 220 212 205 199 200 206 195 184 187 159 110 55 38 328 12 24 345 180 170 129 198 243 218 233 234 207 212 222 243 294 290 285 210 244 247 124 253 282 291 261 260 257 255 259 256 226 178 181 177
348 350 351 349 347 345 343 342 341 339 338 336 334 333 331 328 326 324 324 324 324 325 325 327 330 331 335 340 348 348 341 341 305 193 150 8 351 355 277 203 200 200 200 201 195 200 183 144 134 89 74 84 322 7 181 228 210 180 148 206 235 199 235 241 217 226 236 236 251 276 320 290 263 201 203 230 296 284 247 235 237 243 249 248 225 183 184 183
350 350 351 347 345 342 340 340 339 339 335 334 332 329 328 323 320 317 316 315 316 318 318 319 321 324 330 335 343 347 2 11 278 186 183 330 336 337 280 192 195 194 195 197 169 151 132 120 98 56 81 161 317 38 241 222 139 172 211 228 227 164 234 246 213 228 226 185 228 269 299 284 280 213 210 194 232 261 249 221 221 234 244 244 223 190 188 193
352 352 353 349 347 342 339 338 337 337 334 333 331 329 327 321 317 313 310 308 307 306 307 307 310 313 318 327 332 344 43 341 268 244 295 314 318 311 236 190 191 188 193 194 164 147 127 99 85 95 99 58 198 196 248 230 128 236 251 252 242 195 230 256 214 216 185 192 248 247 279 300 307 280 221 179 220 250 253 227 217 232 239 241 199 171 190 203
350 351 354 351 349 342 339 338 337 336 335 334 332 331 327 323 319 314 310 305 301 300 299 298 300 301 307 319 314 334 102 240 270 276 289 297 295 290 217 195 186 190 196 183 158 146 119 107 151 156 118 317 215 211 237 221 121 240 260 258 250 213 227 253 253 248 221 243 252 259 321 294 266 277 237 182 225 252 258 244 235 252 245 228 192 186 205 206
346 348 352 352 348 343 339 337 337 335 333 334 332 331 328 326 321 315 313 306 303 301 298 295 295 297 305 313 304 334 157 249 272 276 276 278 275 264 213 198 189 196 197 192 175 155 137 145 183 161 138 242 198 188 202 157 146 219 235 245 252 228 236 261 271 269 263 257 257 285 291 270 253 265 282 244 241 255 261 259 245 258 257 231 223 218 216 215
345 346 350 350 348 344 341 339 338 334 332 332 330 329 327 325 322 317 313 307 305 302 301 298 293 293 298 318 81 318 258 261 274 263 256 260 263 245 218 206 198 200 194 200 190 167 165 179 201 191 194 214 171 187 183 179 242 216 221 245 267 268 265 275 277 256 253 251 221 208 260 267 266 271 271 252 243 254 261 268 255 251 257 240 234 230 219 221
343 345 347 347 348 345 343 341 339 337 336 334 331 330 327 325 321 316 312 307 303 300 302 300 294 291 283 310 80 273 266 268 254 233 247 257 253 234 222 220 209 204 192 191 189 176 179 194 193 175 176 163 165 198 162 173 214 194 206 260 254 264 276 257 257 250 242 251 204 194 251 266 285 32 267 246 228 247 263 270 265 243 250 244 236 235 225 225
340 343 343 346 349 346 346 345 342 341 338 337 335 331 328 326 322 316 310 302 296 296 299 299 299 290 269 157 189 252 266 258 240 241 254 257 251 239 234 234 219 207 193 178 194 196 198 195 161 124 175 188 172 196 208 198 182 177 187 298 274 281 290 243 238 248 218 253 207 186 246 276 308 180 250 258 239 209 266 275 275 248 248 248 241 239 229 230
338 340 343 348 350 350 350 347 344 343 340 339 335 332 329 325 321 314 305 297 292 292 292 294 296 283 268 200 228 248 259 256 252 254 255 254 249 240 236 233 224 215 202 188 205 209 210 199 153 153 217 178 150 243 233 212 130 273 76 320 290 321 306 261 245 236 185 217 184 160 252 284 263 238 246 259 256 174 255 275 279 265 256 251 246 243 236 238
338 340 345 348 350 352 351 348 346 344 341 340 337 335 329 323 318 309 300 293 287 286 286 288 286 256 183 261 249 255 260 258 257 257 256 251 244 237 228 222 220 219 213 209 214 208 209 206 172 180 205 155 234 237 145 55 45 296 64 284 294 335 306 264 180 106 171 199 161 147 267 251 244 259 260 261 253 236 256 264 271 271 267 260 251 245 246 244
338 343 347 349 351 351 349 348 346 344 343 342 341 337 330 322 314 304 299 292 285 282 278 279 265 186 149 258 268 279 270 261 257 253 250 244 230 221 217 209 209 208 211 213 204 179 193 199 168 141 217 164 245 282 5 5 5 306 299 233 304 302 284 286 132 120 264 234 155 156 259 243 244 266 270 272 211 226 253 261 267 271 270 269 260 249 252 251
341 345 347 348 349 349 347 347 345 345 344 343 343 338 329 321 313 308 302 292 284 274 259 242 185 145 98 274 271 288 278 265 258 253 251 242 222 204 196 188 193 193 195 196 183 162 166 172 145 130 252 251 359 323 324 339 3 1 275 279 295 207 270 305 287 204 225 270 130 162 240 255 250 258 269 293 150 202 243 262 265 271 272 271 267 258 256 260
341 343 344 345 347 348 348 347 347 347 346 346 345 339 331 324 321 321 314 300 277 239 188 182 170 140 76 274 281 293 274 258 258 259 252 237 226 210 171 160 160 162 171 174 166 162 148 135 123 155 206 297 172 135 13 351 329 328 216 252 261 237 271 313 298 245 202 201 185 209 234 266 256 253 269 297 282 209 230 260 264 268 272 270 268 263 260 268
336 338 341 344 347 348 350 350 349 349 348 349 347 341 337 334 340 345 343 20 119 143 116 140 158 136 265 265 289 289 268 251 251 257 242 226 220 196 157 132 121 133 129 123 143 147 124 109 76 5 52 4 141 115 40 285 270 280 224 238 248 246 258 294 297 291 163 164 216 233 241 252 256 265 283 293 292 278 261 262 265 265 269 268 266 263 261 263
330 334 340 343 347 350 351 351 350 350 349 350 349 343 345 359 10 39 67 93 104 111 85 78 133 130 270 261 272 278 308 271 241 239 221 201 189 179 155 122 120 120 96 59 123 143 6 24 79 36 360 317 158 140 202 230 226 231 227 239 257 243 248 255 265 287 337 223 226 259 255 254 263 271 276 278 279 283 277 269 264 263 265 265 266 263 258 258
325 331 337 341 345 348 350 350 350 351 349 352 353 347 5 13 29 80 73 79 96 111 335 239 165 160 265 260 262 280 320 290 192 187 171 155 159 161 133 110 109 105 102 58 267 186 134 51 79 135 213 229 222 193 206 224 222 225 229 239 258 257 247 240 248 260 297 285 262 263 264 262 267 267 267 272 265 261 272 276 271 264 261 259 261 259 256 257
320 326 331 336 339 342 346 348 348 351 353 355 358 359 29 13 11 30 360 352 225 237 267 239 218 238 277 285 278 275 289 227 205 169 156 154 153 141 98 79 77 72 143 164 204 199 140 165 179 195 209 221 226 210 214 233 247 266 262 255 253 261 264 254 265 270 196 288 257 251 268 271 267 267 262 269 271 256 260 270 273 269 265 259 256 258 258 256
314 317 324 330 331 334 340 343 345 351 356 0 9 28 85 39 12 317 320 302 260 247 251 244 230 243 261 266 261 229 9 267 235 149 160 164 150 143 140 117 119 163 197 154 156 57 140 196 214 216 217 225 230 211 222 246 283 282 255 267 264 252 266 266 273 279 275 247 259 248 271 273 267 269 264 261 267 261 253 255 266 273 273 265 255 257 259 257
316 315 320 322 324 328 332 338 342 347 356 7 30 66 126 196 275 273 284 300 280 253 242 248 242 247 252 255 255 233 49 280 269 200 164 156 144 179 208 127 158 201 160 122 136 257 221 221 231 228 227 258 330 137 184 224 244 254 252 277 275 254 278 276 265 284 320 223 277 282 275 273 265 261 255 248 248 251 253 251 256 268 272 272 262 254 259 265
311 313 317 318 324 327 329 337 338 344 1 16 45 75 42 333 289 260 234 272 288 269 237 240 235 233 246 257 252 200 210 243 254 249 173 150 138 199 159 143 175 164 140 179 204 217 228 234 235 235 231 259 273 109 115 204 239 234 225 255 269 253 274 270 265 316 328 236 275 292 284 279 262 251 246 244 246 251 262 264 255 251 257 265 262 255 261 271
295 296 304 311 320 323 326 334 334 347 5 25 52 36 3 344 306 197 286 260 279 277 247 229 215 219 236 263 226 177 213 221 223 246 174 154 139 162 166 158 152 145 190 206 214 226 239 241 230 228 209 214 245 242 150 243 265 230 209 226 256 251 247 255 287 337 320 284 300 306 296 288 236 222 241 248 253 256 262 264 261 256 248 252 260 266 267 263
281 281 287 295 306 313 319 326 331 352 358 21 47 8 360 346 312 163 10 317 282 285 279 236 190 232 226 186 152 174 187 210 234 235 173 167 154 142 193 163 145 199 210 211 224 241 251 246 146 162 199 197 220 244 209 209 255 258 212 211 239 252 256 264 293 338 334 306 338 9 313 295 197 161 237 277 292 254 251 250 254 256 250 246 256 271 268 258
276 274 277 281 291 306 314 317 319 339 346 1 19 359 353 335 306 227 70 6 291 277 304 236 173 216 202 139 161 162 129 266 289 12 162 186 172 137 155 190 164 215 202 201 228 248 253 237 192 196 199 175 186 249 222 190 241 277 232 208 230 248 259 264 276 305 292 261 289 62 346 286 295 174 223 245 234 248 252 247 247 249 256 271 271 261 269 272
272 271 271 269 270 286 296 282 291 317 330 305 349 358 352 340 318 277 23 355 296 240 114 286 343 88 180 180 147 135 158 275 339 38 74 14 286 86 146 210 218 235 179 150 280 244 208 212 217 203 171 146 176 246 215 172 203 270 232 195 209 225 237 240 238 229 242 276 288 135 133 280 287 267 211 216 208 253 265 257 255 256 282 323 290 260 266 271
271 270 269 265 260 253 251 256 277 289 264 279 343 358 352 342 320 356 41 315 290 102 95 292 128 91 323 35 64 96 193 284 48 330 326 50 289 41 317 230 195 224 184 147 249 256 157 194 205 170 131 155 201 221 175 155 191 251 169 149 170 196 217 172 171 212 260 336 292 199 140 249 275 278 59 167 202 247 259 254 259 270 298 302 282 274 267 268
278 275 272 267 257 244 244 250 249 251 261 275 335 342 339 323 328 57 85 249 293 62 64 349 124 333 354 42 32 39 344 356 100 274 320 81 136 85 191 222 169 220 251 187 236 270 189 219 192 153 148 205 211 196 161 163 198 223 117 100 80 78 72 105 145 147 73 311 257 194 161 205 275 278 72 69 200 237 254 258 264 272 281 275 269 272 278 310
289 286 280 262 243 232 231 244 248 249 257 260 297 327 330 318 29 75 229 242 349 325 260 60 300 312 39 72 342 330 262 285 347 344 1 83 9 37 149 199 120 166 272 270 257 261 266 328 144 163 183 195 171 128 175 177 177 152 115 72 31 35 41 61 81 95 84 278 237 181 182 188 273 279 134 164 218 220 249 279 281 282 280 274 273 287 312 346
294 294 290 264 239 229 211 246 257 241 237 246 278 329 333 354 71 191 238 226 23 293 348 24 335 16 56 96 300 305 213 278 330 93 50 95 28 32 70 246 78 72 316 301 277 272 269 208 214 238 191 134 118 98 333 126 129 130 115 79 12 329 13 33 355 58 169 264 241 181 184 189 235 255 199 262 270 235 232 254 273 283 284 282 301 323 321 312
288 288 288 270 243 232 221 243 275 213 209 204 180 36 44 353 240 218 244 15 353 284 81 348 316 53 44 25 302 270 224 272 192 127 153 147 142 178 193 202 171 330 305 256 279 307 273 215 216 288 233 154 137 138 343 8 109 133 128 129 219 308 342 344 315 115 209 260 262 183 176 206 244 260 276 276 277 258 231 226 251 271 286 300 319 318 307 302
282 281 277 262 241 230 230 237 215 165 164 149 123 53 85 228 247 200 191 258 241 277 86 118 339 95 104 347 283 243 221 242 188 144 161 143 178 244 236 205 165 204 266 236 321 314 288 259 165 128 265 189 156 178 240 249 172 163 157 161 175 195 262 257 253 261 254 270 278 186 172 256 277 281 246 243 258 265 246 230 240 253 275 293 301 300 303 305
286 282 270 257 242 230 231 234 217 173 149 131 108 65 142 231 249 108 161 234 253 331 353 109 52 3 180 236 251 203 225 265 150 132 188 125 161 266 251 230 181 172 222 269 306 256 265 288 218 170 253 192 181 203 203 140 161 184 166 144 172 186 200 224 228 251 262 278 306 196 186 218 239 262 235 231 256 286 276 256 271 271 259 271 291 293 298 302
288 281 272 259 244 229 223 225 215 189 161 129 110 173 211 235 253 224 219 233 271 305 306 360 65 333 287 254 269 229 220 254 96 112 184 176 199 225 209 213 198 170 150 207 251 170 222 267 254 217 234 172 193 236 70 94 183 227 126 110 217 204 183 237 252 236 245 303 289 213 218 223 226 261 263 260 275 284 283 304 346 310 275 301 309 286 292 313
292 287 275 254 241 232 220 213 205 191 172 139 160 214 228 232 211 211 217 196 194 195 308 312 202 245 271 258 273 270 213 225 206 125 213 209 218 225 214 217 194 177 171 190 231 214 229 259 262 233 246 184 193 233 71 145 218 163 116 193 231 173 145 251 285 303 66 271 254 240 258 278 295 284 290 334 310 297 301 305 296 275 286 318 282 267 303 326
302 297 272 247 243 234 218 206 197 189 174 153 213 222 233 227 201 205 199 147 183 130 97 277 236 218 252 255 262 261 163 238 214 169 224 240 242 206 202 250 211 188 199 208 233 244 251 268 243 189 229 240 176 158 360 220 163 132 184 230 230 129 132 167 275 327 274 257 254 254 266 283 298 283 308 350 317 310 322 311 292 274 276 271 262 280 320 304
313 310 279 260 251 235 217 200 188 181 161 180 231 235 228 224 216 200 175 161 276 281 194 244 252 245 235 242 258 222 182 225 178 157 211 234 244 184 165 240 227 196 220 209 167 278 291 280 262 175 208 279 63 95 291 297 155 156 217 266 101 207 247 188 182 229 247 255 253 239 256 272 269 263 280 288 283 288 291 294 304 281 251 253 274 304 307 292
320 343 290 284 261 227 207 190 177 170 161 205 228 235 222 228 231 196 191 215 261 261 239 241 249 269 258 233 251 254 207 205 170 194 217 221 243 197 153 222 214 231 261 157 163 294 358 273 274 88 144 311 13 112 212 272 316 131 282 324 74 183 230 233 193 187 242 256 257 239 241 250 249 259 268 260 259 275 281 281 285 262 244 258 282 299 311 318
9 45 268 337 5 193 186 176 167 174 204 213 229 233 230 249 248 243 231 219 227 236 234 236 227 244 261 252 256 271 248 216 210 223 226 235 258 246 194 192 145 65 347 118 172 313 23 246 254 277 282 300 289 207 185 194 226 205 216 251 241 223 261 281 251 185 239 258 260 254 245 235 240 263 264 247 225 252 281 287 281 270 263 270 276 287 305 314
17 71 264 351 64 161 166 166 178 200 205 224 244 242 252 270 267 287 280 203 222 244 207 206 215 236 262 270 263 250 230 236 223 219 235 242 251 254 228 182 167 158 64 81 184 196 171 231 244 260 265 261 248 221 190 202 212 207 210 213 223 229 234 270 254 207 215 247 247 257 259 245 251 293 290 279 260 260 283 293 294 296 294 286 288 298 310 327
192 160 322 356 152 162 161 179 203 199 212 222 239 242 249 265 258 268 274 207 216 250 284 228 225 238 251 260 261 234 209 238 217 215 243 234 228 242 260 352 51 175 198 225 221 210 175 176 223 244 249 258 265 257 191 197 202 204 217 206 214 210 186 226 249 238 229 241 242 255 262 248 233 275 287 286 285 286 282 277 284 289 293 310 333 350 3 14
201 222 322 336 174 169 166 217 204 209 235 239 286 272 249 259 254 250 248 225 216 235 267 245 230 239 236 239 246 228 215 226 216 222 238 241 240 262 357 13 20 7 294 285 298 307 360 136 234 254 258 269 280 287 128 128 106 119 240 213 204 213 217 235 249 269 263 256 259 262 262 242 211 247 262 272 284 291 281 264 296 317 336 354 6 15 20 19
318 281 301 298 210 189 192 212 205 218 228 243 266 256 254 259 250 252 250 224 197 206 235 241 238 239 231 223 231 231 229 233 243 246 239 235 247 2 33 25 35 41 351 320 311 303 293 217 247 278 279 285 293 294 332 41 66 225 250 245 234 250 269 275 282 295 273 244 244 258 264 254 238 260 270 276 285 291 309 17 33 26 18 15 13 15 16 13
339 298 268 286 281 271 247 219 225 226 221 232 241 245 256 257 242 243 246 243 224 209 236 266 267 262 257 245 242 271 246 221 252 284 277 259 262 21 31 23 44 65 52 36 12 312 273 245 243 260 256 259 274 272 278 342 222 225 268 265 257 247 249 264 276 270 261 237 234 250 268 270 274 285 285 296 307 312 348 33 45 40 31 24 16 10 8 10
355 303 294 302 307 289 252 299 328 239 228 232 233 234 240 246 253 225 213 237 240 222 229 252 254 296 282 251 240 266 256 216 214 254 275 280 282 338 20 41 59 72 81 44 22 20 206 266 254 255 255 255 266 274 297 311 287 280 286 282 283 275 256 261 268 260 268 269 254 256 271 277 278 285 303 336 348 348 6 27 34 33 28 22 16 10 9 11
146 236 222 311 329 286 266 321 329 255 278 279 251 245 233 237 255 241 209 236 245 224 237 230 204 223 238 226 228 253 257 227 222 238 260 275 285 306 317 106 87 59 75 44 2 37 133 275 264 264 267 269 281 291 302 303 292 286 287 284 282 280 273 267 263 261 272 276 266 268 281 283 282 295 350 14 360 352 4 12 17 27 23 14 13 11 10 10
239 232 228 273 298 267 254 317 346 309 296 297 298 299 266 246 252 258 259 297 310 79 262 247 173 223 256 262 237 247 270 262 242 222 173 6 326 320 333 357 108 56 63 40 1 69 137 267 257 263 275 288 303 306 304 299 293 289 286 282 279 277 273 266 264 269 273 272 275 285 285 282 286 311 19 27 360 350 358 357 359 13 16 16 17 13 10 6
354 284 305 336 343 286 304 330 1 345 295 284 282 266 265 269 270 270 300 316 301 298 262 257 83 69 20 354 238 229 246 263 268 214 124 36 320 315 331 319 300 49 39 13 355 136 215 260 266 274 292 302 295 289 288 287 288 286 280 276 276 274 270 268 270 273 269 265 270 276 275 275 289 5 4 356 352 334 331 344 1 12 14 15 16 14 12 4
40 201 316 8 347 264 328 336 331 324 292 257 248 256 261 266 275 290 306 260 266 277 281 289 65 61 21 356 316 241 244 268 283 269 111 91 314 338 313 270 293 357 357 348 322 268 246 277 304 311 307 296 287 280 275 275 278 281 281 278 273 271 269 271 272 269 266 267 269 270 270 272 45 55 350 338 346 341 347 358 3 9 8 8 13 12 5 358
181 319 14 23 298 241 136 20 317 278 268 229 226 262 268 257 274 325 325 273 282 15 79 84 71 49 5 297 286 278 297 360 302 262 117 154 242 294 325 255 301 327 321 291 245 280 278 283 303 303 285 279 284 284 283 285 286 280 277 271 267 265 265 265 264 266 271 279 284 280 275 279 29 15 345 344 348 352 354 347 347 359 1 2 5 1 352 349
174 303 168 134 285 255 150 32 332 214 245 254 269 313 307 329 14 4 295 36 79 92 86 84 93 53 268 260 272 285 309 340 267 266 246 215 238 250 239 246 259 263 270 273 251 234 246 261 280 278 274 275 274 279 293 306 296 275 263 258 260 262 266 267 271 297 321 304 293 291 289 341 318 322 347 349 345 348 340 327 323 334 347 356 357 348 339 332